{"data":{"norad_id":66970,"intl_designator":"2025-288M","name":"STARLINK-35703","alt_names":[],"object_type":"PAYLOAD","status":"ACTIVE","operator":null,"country":"US","launch_date":"2025-12-08","launch_site_code":"AFETR","launch_vehicle":null,"mission":null,"orbit_class":"UNKNOWN","rcs_meters":null,"size_class":null,"mass_kg":null,"dimensions":null,"purposes":["comms"],"wikipedia_slug":null,"has_3d_model":false,"image_url":null,"decayed_at":null,"tle_current":{"epoch":"2026-05-24T21:15:21.815424Z","epoch_age_seconds":75108,"freshness":"FRESH","line1":"1 66970U 25288M   26144.88566916  .00029349  00000+0  10705-2 0  9990","line2":"2 66970  43.0006 312.8757 0001467 269.9421  90.1263 15.27618876 26940","mean_motion":15.27618876,"eccentricity":0.0001467,"inclination_deg":43.0006,"raan_deg":312.8757,"arg_perigee_deg":269.9421,"mean_anomaly_deg":90.1263,"bstar":0.0010705,"rev_number":2694,"period_min":94.264349742167,"perigee_km":481.92617085531,"apogee_km":483.9392087023,"semimajor_km":6861.0696897788,"source":"CELESTRAK","updated_at":"2026-05-25T13:38:21.422250Z"}}}